Home   Weather   Curitiba   Past weeks

Flag for Brazil Past Weather in Curitiba, Paraná, Brazil — Yesterday and Last 2 Weeks

Now
54 °F

Mostly cloudy.


Feels Like: 50 °F
Forecast: 52 / 66 °F
Wind: 13 mph from Southeast

Location: Curitiba Aeroporto

Current Time: Sep 30, 2016 at 5:33:18 AM

Latest Report: Sep 30, 2016 at 3:00 AM


Visibility: N/A

Pressure: 30.07 "Hg (26.95 "Hg at 915m altitude)

Humidity: 94%

Dew Point: 52 °F

Location of CuritibaLocation

Past Weather in Curitiba — Graph

°F

Curitiba Temperature Yesterday

Maximum temperature yesterday: 72 °F (at 11:00 AM)
Minimum temperature yesterday: 52 °F (at 4:00 AM)
Average temperature yesterday: 60 °F

High & Low Weather Summary for the Past Weeks

 TemperatureHumidityPressure
High81 °F (Sep 18, 11:00 AM)100% (Sep 15, 10:00 PM)30.30 "Hg (Sep 15, 10:00 PM)
Low41 °F (Sep 15, 6:00 AM)22% (Sep 15, 2:00 PM)30.04 "Hg (Sep 15, 3:00 PM)
Average58 °F78%30.14 "Hg
* Reported Sep 15 3:00 AM — Sep 30 3:00 AM, Curitiba, Weather by CustomWeather, © 2016

Note: Actual official high and low records may vary slightly from our data, if they occured in-between our weather recording intervals... More about our weather records

Advertising

Curitiba Weather History for the Previous 24 Hours

Scroll right to see more
 ConditionsComfort  
Time TempWeatherWind HumidityBarometerVisibility
3:00 AM
Fri, Sep 30
54 °FMostly cloudy.13 mph94%30.07 "HgN/A
11:00 PM
Thu, Sep 29
54 °FMostly cloudy.12 mph94%30.12 "HgN/A
10:00 PM54 °FMostly cloudy.8 mph88%30.12 "HgN/A
9:00 PM54 °FMostly cloudy.12 mph82%30.12 "HgN/A
7:00 PM55 °FMostly cloudy.14 mph88%30.09 "HgN/A
6:00 PM57 °FPartly sunny.13 mph82%30.07 "HgN/A
5:00 PM59 °FPartly sunny.15 mph77%30.04 "HgN/A
4:00 PM63 °FPassing clouds.17 mph68%30.04 "HgN/A
3:00 PM66 °FScattered clouds.16 mph68%30.04 "HgN/A
2:00 PM70 °FScattered clouds.14 mph57%30.07 "HgN/A
1:00 PM70 °FPassing clouds.15 mph57%30.07 "HgN/A
12:00 PM70 °FPassing clouds.9 mph50%30.09 "HgN/A
11:00 AM72 °FPassing clouds.9 mph44%30.09 "HgN/A
10:00 AM70 °FSunny.10 mph43%30.09 "Hg10 mi
9:00 AM68 °FSunny.9 mph53%30.12 "Hg10 mi
8:00 AM61 °FSunny.9 mph72%30.09 "Hg10 mi
7:00 AM55 °FSunny.5 mph88%30.07 "Hg10 mi
6:00 AM52 °FSunny.2 mph88%30.07 "Hg10 mi
5:00 AM52 °FClear.5 mph94%30.07 "Hg10 mi
Weather by CustomWeather, © 2016

See weather overviewHow to use our weather pages